Location: Hawaiian Village Mobile Home Park
(32.8359°N, 116.9792°W)
Time: 18:11:00
(UTC+00:00)

SL-19 R/B - Pass Details

Date: 01 August 2021
Orbit: 874 x 1208 km, 100.6° (Epoch: 22 September)

Event Time Altitude Azimuth Distance (km) Brightness Sun altitude
Rises 12:03:18 0° 162° (SSE) 3,461 7.3 -11.9°
Reaches altitude 10° 12:05:37 10° 161° (SSE) 2,540 6.6 -11.5°
Maximum altitude 12:11:14 85° 75° (ENE) 924 4.5 -10.4°
Drops below altitude 10° 12:17:14 10° 346° (NNW) 2,705 7.0 -9.3°
Sets 12:19:46 0° 346° (NNW) 3,701 7.7 -8.9°
